This demonstration page uses our WeatherBlox Daily Observations layout. Learn more.

Left ArrowRight Arrow

41.55636, -103.73856

Hourly Observations for December 7, 2018

Temp ( °F °C ) Dew Point ( °F °C ) Humidity (%) Winds ( mph kmh ) Pressure ( in mb ) Visibility ( mi km ) Precip ( " mm )
12:58 am 00:58 Clear 10 -12 7 -13.7 87 87 W 9 15 30.40 1030 10 16 N/A
1:58 am 01:58 Clear 9 -12.9 5 -15.2 83 83 W 8 13 30.42 1030 10 16 N/A
2:58 am 02:58 Clear 8 -13.1 6 -14.6 89 89 W 10 17 30.43 1031 10 16 N/A
3:58 am 03:58 Clear 8 -13.6 4 -15.4 86 86 WNW 10 17 30.45 1031 10 16 N/A
4:58 am 04:58 Clear 9 -12.6 5 -15.2 81 81 WNW 9 15 30.46 1032 10 16 N/A
5:58 am 05:58 Clear 11 -11.8 7 -14.1 83 83 NW 8 13 30.47 1032 10 16 N/A
6:58 am 06:58 Clear 10 -12.3 6 -14.2 86 86 NW 10 17 30.50 1033 10 16 N/A
7:58 am 07:58 Sunny 13 -10.3 9 -12.7 83 83 NW 8 13 30.50 1033 10 16 N/A
8:58 am 08:58 Sunny 22 -5.4 16 -8.8 77 77 NNW 7 11 30.48 1032 10 16 N/A
9:58 am 09:58 Sunny 26 -3.1 13 -10.4 57 57 N 6 9 30.49 1032 10 16 0.01 0.25
10:58 am 10:58 Sunny 28 -2.2 11 -11.9 48 48 W 7 11 30.46 1032 10 16 0.00 0.00
11:58 am 11:58 Sunny 31 -0.6 13 -10.4 48 48 Calm 30.43 1031 10 16 N/A
12:58 pm 12:58 Sunny 34 1.1 19 -7.5 53 53 Calm 30.40 1029 10 16 N/A
2:56 pm 14:56 Sunny 36 2.2 20 -6.4 53 53 SSE 8 13 30.41 1030 10 16 N/A
3:58 pm 15:58 Sunny 33 0.3 20 -6.4 61 61 SSE 7 11 30.44 1031 10 16 N/A
4:58 pm 16:58 Clear 28 -2.2 21 -6 75 75 SSW 10 17 30.45 1031 10 16 N/A
5:58 pm 17:58 Clear 27 -2.6 20 -6.6 74 74 S 9 15 30.45 1031 10 16 N/A
6:58 pm 18:58 Clear 24 -4.7 19 -7.1 84 84 SSW 12 19 30.49 1032 10 16 N/A
7:58 pm 19:58 Clear 22 -5.3 16 -8.7 77 77 SSW 8 13 30.46 1032 10 16 N/A
8:58 pm 20:58 Clear 21 -5.9 17 -8.3 83 83 SW 7 11 30.42 1030 10 16 N/A
9:58 pm 21:58 Clear 21 -6.3 17 -8.3 86 86 SW 9 15 30.41 1030 10 16 N/A
10:58 pm 22:58 Clear 18 -7.6 15 -9.4 87 87 WSW 7 11 30.41 1030 10 16 N/A
11:58 pm 23:58 Clear 20 -6.5 16 -9 83 83 WSW 12 19 30.37 1029 10 16 N/A

Powered by AerisWeather